Montrose, CO

12:56 AM MDT on April 29, 2017 (GMT -0600)
Montrose Regional

Weather History for KMTJ - November, 2014

Change the Weather History Date:

Monday, November 3, 2014

  Actual Average Record
Temperature  
Mean Temperature 39 °F 43 °F  
Max Temperature 45 °F 57 °F 67 °F (2015)
Min Temperature 32 °F 29 °F 19 °F (2004)
Degree Days  
Heating Degree Days 26 22  
Month to date heating degree days 46 65  
Since 1 July heating degree days 468 656  
Cooling Degree Days 0 0  
Month to date cooling degree days 0 0  
Year to date cooling degree days 782 643  
Moisture  
Dew Point 30 °F    
Average Humidity 69    
Maximum Humidity 85    
Minimum Humidity 53    
Precipitation  
Precipitation T in 0.03 in 0.09 in (1996)
Month to date precipitation 0.09 0.09  
Year to date precipitation 8.53 9.93  
Sea Level Pressure  
Sea Level Pressure 30.08 in    
Wind  
Wind Speed 7 mph (SSW)    
Max Wind Speed 33 mph    
Max Gust Speed 42 mph    
Visibility 10 miles    
Events Rain    
T = Trace of Precipitation, MM = Missing Value Source: NWS Daily Summary

Daily Weather History Graph

Daily Weather History Graph

Search for Another Location

Airport or City:

Trip Planner

Search our weather history database for the weather conditions in past years. The results will help you decide how hot, cold, wet, or windy it might be!

Date:

Astronomy

Nov. 03, 2014 Rise Set
Actual Time 6:40 AM MST 5:09 PM MST
Civil Twilight 6:12 AM MST 5:36 PM MST
Nautical Twilight 5:41 AM MST 6:08 PM MST
Astronomical Twilight 5:10 AM MST 6:39 PM MST
Moon 3:17 PM MST (11/3) 2:56 AM MST (11/3)
Length of Visible Light 11h 24m
Length of Day
10h 29m
Waxing Gibbous, 88% of the Moon is Illuminated
Nov 3
Waxing Gibbous
Nov 6
Full
Nov 14
Last Quarter
Nov 22
New
Nov 29
First Quarter

Hourly Weather History & Observations

Time (MST) Temp. Windchill Dew Point Humidity Pressure Visibility Wind Dir Wind Speed Gust Speed Precip Events Conditions
12:53 AM 41.0 °F 30.7 °F 30.0 °F 65% 29.84 in 10.0 mi SW 25.3 mph 36.8 mph N/A   Scattered Clouds
1:00 AM 39.9 °F 29.5 °F 30.9 °F 70% 29.96 in 10.0 mi SSW 24.2 mph 41.4 mph 0.00 in Rain Light Rain
1:11 AM 39.0 °F 29.9 °F 30.9 °F 73% 29.96 in 10.0 mi South 17.3 mph 28.8 mph 0.00 in   Scattered Clouds
1:53 AM 39.9 °F 34.5 °F 30.0 °F 68% 29.86 in 10.0 mi ESE 8.1 mph - 0.00 in   Partly Cloudy
2:53 AM 39.0 °F 31.8 °F 30.0 °F 70% 29.88 in 10.0 mi SE 11.5 mph - N/A   Mostly Cloudy
3:53 AM 39.9 °F 35.8 °F 30.0 °F 68% 29.88 in 10.0 mi SE 5.8 mph - N/A   Overcast
4:53 AM 42.1 °F 37.1 °F 28.9 °F 60% 29.91 in 10.0 mi SSW 8.1 mph - N/A   Overcast
5:53 AM 41.0 °F 36.4 °F 30.0 °F 65% 29.96 in 10.0 mi SW 6.9 mph - N/A   Overcast
6:53 AM 37.9 °F - 33.1 °F 83% 30.00 in 10.0 mi Calm Calm - N/A   Overcast
7:53 AM 39.9 °F - 32.0 °F 73% 30.03 in 10.0 mi Calm Calm - N/A   Overcast
8:53 AM 39.0 °F 33.4 °F 34.0 °F 82% 30.06 in 10.0 mi NNW 8.1 mph - N/A   Overcast
9:53 AM 42.1 °F 38.4 °F 30.9 °F 65% 30.06 in 10.0 mi North 5.8 mph - N/A   Mostly Cloudy
10:53 AM 44.1 °F 38.6 °F 32.0 °F 63% 30.07 in 10.0 mi North 10.4 mph - N/A   Mostly Cloudy
11:53 AM 44.1 °F 38.6 °F 30.0 °F 58% 30.08 in 10.0 mi NNW 10.4 mph - N/A   Overcast
12:53 PM 44.1 °F 40.1 °F 30.0 °F 58% 30.09 in 10.0 mi NW 6.9 mph - N/A   Overcast
1:53 PM 43.0 °F 36.8 °F 30.9 °F 62% 30.10 in 10.0 mi NNW 11.5 mph - N/A   Overcast
2:53 PM 43.0 °F 39.5 °F 30.0 °F 60% 30.12 in 10.0 mi NNW 5.8 mph - N/A   Scattered Clouds
3:53 PM 43.0 °F 37.2 °F 28.9 °F 58% 30.12 in 10.0 mi WNW 10.4 mph - N/A   Clear
4:53 PM 41.0 °F 35.8 °F 30.0 °F 65% 30.14 in 10.0 mi NW 8.1 mph - N/A   Mostly Cloudy
5:53 PM 37.0 °F 34.5 °F 30.0 °F 76% 30.18 in 10.0 mi ENE 3.5 mph - N/A   Clear
6:53 PM 35.1 °F 31.0 °F 30.0 °F 82% 30.22 in 10.0 mi SSE 4.6 mph - N/A   Overcast
7:53 PM 33.1 °F 26.9 °F 28.9 °F 85% 30.24 in 10.0 mi SSE 6.9 mph - N/A   Partly Cloudy
8:53 PM 33.1 °F 28.7 °F 28.9 °F 85% 30.26 in 10.0 mi SSE 4.6 mph - N/A   Clear
9:53 PM 33.1 °F 27.7 °F 28.9 °F 85% 30.27 in 10.0 mi SSE 5.8 mph - N/A   Mostly Cloudy
10:03 PM 33.1 °F 30.0 °F 30.0 °F 89% 30.30 in 10.0 mi SSE 3.5 mph - N/A   Overcast
10:53 PM 35.1 °F - 30.9 °F 85% 30.26 in 10.0 mi Calm Calm - N/A   Overcast
11:53 PM 36.0 °F - 32.0 °F 86% 30.27 in 10.0 mi Calm Calm - N/A   Overcast